New York, NY

4:31 AM EST on November 20, 2017 (GMT -0500)
La Guardia

Weather History for KLGA - May, 2014

Change the Weather History Date:

Thursday, May 8, 2014

  Actual Average Record
Temperature  
Mean Temperature 56 °F 60 °F  
Max Temperature 58 °F 69 °F 89 °F (2000)
Min Temperature 53 °F 51 °F 37 °F (1947)
Degree Days  
Heating Degree Days 9 6  
Month to date heating degree days 38 54  
Since 1 July heating degree days 4966 4568  
Cooling Degree Days 0 1  
Month to date cooling degree days 0 8  
Year to date cooling degree days 0 16  
Growing Degree Days 5 (Base 50)    
Moisture  
Dew Point 49 °F    
Average Humidity 70    
Maximum Humidity 93    
Minimum Humidity 47    
Precipitation  
Precipitation 0.39 in 0.11 in 2.28 in (2013)
Month to date precipitation 0.57 0.91  
Year to date precipitation 19.75 14.81  
Snow  
Snow 0.00 in 0.00 in - ()
Month to date snowfall 0.0 0.0  
Since 1 July snowfall 52.4 26.9  
Snow Depth 0.00 in    
Sea Level Pressure  
Sea Level Pressure 30.15 in    
Wind  
Wind Speed 7 mph (ENE)    
Max Wind Speed 14 mph    
Max Gust Speed 21 mph    
Visibility 5 miles    
Events Rain    
T = Trace of Precipitation, MM = Missing Value Source: NWS Daily Summary

Daily Weather History Graph

Daily Weather History Graph

Search for Another Location

Airport or City:

Trip Planner

Search our weather history database for the weather conditions in past years. The results will help you decide how hot, cold, wet, or windy it might be!

Date:

Astronomy

May. 08, 2014 Rise Set
Actual Time 5:45 AM EDT 7:59 PM EDT
Civil Twilight 5:15 AM EDT 8:29 PM EDT
Nautical Twilight 4:37 AM EDT 9:07 PM EDT
Astronomical Twilight 3:56 AM EDT 9:48 PM EDT
Moon 1:55 PM EDT (5/8) 2:17 AM EDT (5/8)
Length of Visible Light 15h 14m
Length of Day
14h 13m
Waxing Gibbous, 64% of the Moon is Illuminated
May 8
Waxing Gibbous
May 14
Full
May 21
Last Quarter
May 28
New
Jun 5
First Quarter

Hourly Weather History & Observations

Time (EDT) Temp. Dew Point Humidity Pressure Visibility Wind Dir Wind Speed Gust Speed Precip Events Conditions
12:51 AM 57.9 °F 37.9 °F 47% 30.18 in 10.0 mi South 8.1 mph - N/A   Overcast
1:51 AM 57.9 °F 39.0 °F 49% 30.19 in 10.0 mi SW 6.9 mph - N/A   Overcast
2:51 AM 55.0 °F 45.0 °F 69% 30.18 in 10.0 mi SSW 8.1 mph - 0.02 in Rain Light Rain
3:51 AM 54.0 °F 48.0 °F 80% 30.17 in 6.0 mi Calm Calm - 0.06 in Rain Light Rain
4:51 AM 53.6 °F 48.2 °F 82% 30.18 in 4.0 mi ENE 5.8 mph - N/A Rain Rain
5:36 AM 53.6 °F 50.0 °F 88% 30.17 in 5.0 mi East 4.6 mph - 0.06 in Rain Light Rain
5:47 AM 53.6 °F 50.0 °F 88% 30.17 in 5.0 mi East 4.6 mph - 0.07 in Rain Light Rain
5:51 AM 53.1 °F 50.0 °F 89% 30.17 in 5.0 mi East 4.6 mph - 0.08 in Rain Light Rain
6:26 AM 53.6 °F 50.0 °F 88% 30.18 in 2.0 mi SE 5.8 mph - 0.02 in Rain Light Rain
6:51 AM 54.0 °F 51.1 °F 90% 30.19 in 2.0 mi SSE 3.5 mph - 0.04 in Rain Light Rain
7:51 AM 53.6 °F 51.8 °F 94% 30.18 in 2.0 mi South 6.9 mph - N/A Rain Light Rain
8:37 AM 53.6 °F 50.0 °F 88% 30.18 in 3.0 mi South 8.1 mph - 0.04 in Rain Light Rain
8:51 AM 54.0 °F 50.0 °F 86% 30.18 in 3.0 mi Variable 5.8 mph - 0.04 in Rain Light Rain
9:51 AM 55.9 °F 51.1 °F 84% 30.17 in 5.0 mi South 6.9 mph - 0.02 in Rain Light Rain
10:51 AM 57.0 °F 52.0 °F 83% 30.16 in 8.0 mi ESE 6.9 mph - 0.01 in Rain Light Rain
11:51 AM 55.0 °F 51.1 °F 86% 30.15 in 7.0 mi Calm Calm - 0.00 in   Overcast
12:51 PM 54.0 °F 50.0 °F 86% 30.15 in 4.0 mi ENE 11.5 mph - N/A   Overcast
1:51 PM 54.0 °F 50.0 °F 86% 30.13 in 1.0 mi NE 10.4 mph - N/A   Overcast
1:59 PM 53.6 °F 50.0 °F 88% 30.13 in 1.0 mi NE 10.4 mph - 0.00 in   Light Drizzle
2:51 PM 53.1 °F 50.0 °F 89% 30.12 in 1.0 mi NE 8.1 mph - 0.00 in   Light Drizzle
3:34 PM 53.6 °F 50.0 °F 88% 30.11 in 1.0 mi NE 13.8 mph - 0.00 in   Light Drizzle
3:49 PM 53.6 °F 50.0 °F 88% 30.11 in 2.5 mi NE 12.7 mph - N/A   Light Drizzle
3:51 PM 54.0 °F 50.0 °F 86% 30.11 in 2.5 mi NE 11.5 mph - 0.00 in   Light Drizzle
4:42 PM 53.6 °F 50.0 °F 88% 30.11 in 2.5 mi NE 13.8 mph - 0.00 in   Overcast
4:51 PM 54.0 °F 50.0 °F 86% 30.11 in 2.5 mi NE 11.5 mph - 0.00 in   Overcast
4:58 PM 53.6 °F 51.8 °F 94% 30.11 in 2.5 mi NE 11.5 mph - N/A   Overcast
5:46 PM 53.6 °F 50.0 °F 88% 30.10 in 3.0 mi NE 11.5 mph - N/A   Overcast
5:51 PM 54.0 °F 50.0 °F 86% 30.10 in 3.0 mi NE 10.4 mph 20.7 mph N/A   Overcast
6:51 PM 55.0 °F 51.1 °F 86% 30.12 in 3.0 mi NE 10.4 mph - N/A   Overcast
7:44 PM 55.4 °F 50.0 °F 82% 30.14 in 6.0 mi NNE 8.1 mph - N/A   Haze
7:51 PM 54.0 °F 50.0 °F 86% 30.14 in 6.0 mi NE 8.1 mph - N/A   Overcast
8:21 PM 53.6 °F 50.0 °F 88% 30.14 in 10.0 mi NE 6.9 mph - N/A   Overcast
8:51 PM 54.0 °F 50.0 °F 86% 30.14 in 10.0 mi NE 6.9 mph - N/A   Overcast
9:51 PM 53.1 °F 50.0 °F 89% 30.16 in 9.0 mi NE 4.6 mph - N/A   Overcast
10:08 PM 53.6 °F 50.0 °F 88% 30.17 in 9.0 mi NE 6.9 mph - N/A   Overcast
10:27 PM 53.6 °F 50.0 °F 88% 30.17 in 8.0 mi ENE 4.6 mph - N/A   Overcast
10:45 PM 53.6 °F 50.0 °F 88% 30.18 in 7.0 mi ENE 5.8 mph - N/A   Overcast
10:51 PM 53.6 °F 50.0 °F 88% 30.17 in 6.0 mi ENE 5.8 mph - N/A   Overcast
11:51 PM 53.1 °F 50.0 °F 89% 30.17 in 4.0 mi NE 5.8 mph - N/A   Overcast